Zeit;wasserstand;wasserstand_status;abfluss;abfluss_status
1984-11-01 00:00:00;128.0;0;0.0615;0
1984-11-02 00:00:00;127.0;0;0.0547;0
1984-11-03 00:00:00;126.0;0;0.0468;0
1984-11-04 00:00:00;125.0;0;0.0398;0
1984-11-05 00:00:00;125.0;0;0.0409;0
1984-11-06 00:00:00;123.0;0;0.03;0
1984-11-07 00:00:00;123.0;0;0.0272;0
1984-11-08 00:00:00;126.0;0;0.0411;0
1984-11-09 00:00:00;125.0;0;0.0365;0
1984-11-10 00:00:00;124.0;0;0.0309;0
1984-11-11 00:00:00;123.0;0;0.0271;0
1984-11-12 00:00:00;123.0;0;0.0273;0
1984-11-13 00:00:00;122.0;0;0.0232;0
1984-11-14 00:00:00;122.0;0;0.0225;0
1984-11-15 00:00:00;121.0;0;0.0192;0
1984-11-16 00:00:00;122.0;0;0.0224;0
1984-11-17 00:00:00;121.0;0;0.0173;0
1984-11-18 00:00:00;120.0;0;0.0157;0
1984-11-19 00:00:00;120.0;0;0.0158;0
1984-11-20 00:00:00;120.0;0;0.0151;0
1984-11-21 00:00:00;120.0;0;0.016;0
1984-11-22 00:00:00;127.0;0;0.0507;0
1984-11-23 00:00:00;151.0;0;0.2189;0
1984-11-24 00:00:00;164.0;0;0.3592;0
1984-11-25 00:00:00;155.0;0;0.254;0
1984-11-26 00:00:00;151.0;0;0.2154;0
1984-11-27 00:00:00;143.0;0;0.1454;0
1984-11-28 00:00:00;139.0;0;0.1216;0
1984-11-29 00:00:00;135.0;0;0.0942;0
1984-11-30 00:00:00;133.0;0;0.0853;0
1984-12-01 00:00:00;131.0;0;0.0729;0
1984-12-02 00:00:00;130.0;0;0.0648;0
1984-12-03 00:00:00;128.0;0;0.0571;0
1984-12-04 00:00:00;127.0;0;0.054;0
1984-12-05 00:00:00;127.0;0;0.0516;0
1984-12-06 00:00:00;126.0;0;0.0478;0
1984-12-07 00:00:00;125.0;0;0.0424;0
1984-12-08 00:00:00;124.0;0;0.039;0
1984-12-09 00:00:00;125.0;0;0.0406;0
1984-12-10 00:00:00;124.0;0;0.0378;0
1984-12-11 00:00:00;125.0;0;0.0464;0
1984-12-12 00:00:00;124.0;0;0.0353;0
1984-12-13 00:00:00;123.0;0;0.033;0
1984-12-14 00:00:00;122.0;0;0.0305;0
1984-12-15 00:00:00;122.0;0;0.0278;0
1984-12-16 00:00:00;121.0;0;0.0239;0
1984-12-17 00:00:00;122.0;0;0.0279;0
1984-12-18 00:00:00;121.0;0;0.0251;0
1984-12-19 00:00:00;120.0;0;0.0216;0
1984-12-20 00:00:00;125.0;0;0.0487;0
1984-12-21 00:00:00;153.0;0;0.3214;0
1984-12-22 00:00:00;147.0;0;0.2343;0
1984-12-23 00:00:00;141.0;0;0.1658;0
1984-12-24 00:00:00;137.0;0;0.1328;0
1984-12-25 00:00:00;132.0;0;0.0951;0
1984-12-26 00:00:00;130.0;0;0.0816;0
1984-12-27 00:00:00;128.0;0;0.0733;0
1984-12-28 00:00:00;126.0;0;0.0584;0
1984-12-29 00:00:00;125.0;0;0.0512;0
1984-12-30 00:00:00;125.0;0;0.0512;0
1984-12-31 00:00:00;125.0;0;0.0545;0
1985-01-01 00:00:00;125.0;0;0.0543;0
1985-01-02 00:00:00;124.0;0;0.0463;0
1985-01-03 00:00:00;123.0;0;0.0356;0
1985-01-04 00:00:00;121.0;0;0.0261;0
1985-01-05 00:00:00;122.0;0;0.0314;0
1985-01-06 00:00:00;121.0;0;0.0264;0
1985-01-07 00:00:00;121.0;0;0.028;0
1985-01-08 00:00:00;120.0;0;0.0236;0
1985-01-09 00:00:00;120.0;0;0.0232;0
1985-01-10 00:00:00;120.0;0;0.0221;0
1985-01-11 00:00:00;118.0;0;0.0174;0
1985-01-12 00:00:00;119.0;0;0.0196;0
1985-01-13 00:00:00;119.0;0;0.0199;0
1985-01-14 00:00:00;119.0;0;0.0234;0
1985-01-15 00:00:00;124.0;0;0.0486;0
1985-01-16 00:00:00;118.0;0;0.0169;0
1985-01-17 00:00:00;118.0;0;0.017;0
1985-01-18 00:00:00;119.0;0;0.0204;0
1985-01-19 00:00:00;119.0;0;0.0188;0
1985-01-20 00:00:00;118.0;0;0.018;0
1985-01-21 00:00:00;118.0;0;0.0179;0
1985-01-22 00:00:00;127.0;0;0.0772;0
1985-01-23 00:00:00;133.0;0;0.1206;0
1985-01-24 00:00:00;126.0;0;0.0698;0
1985-01-25 00:00:00;126.0;0;0.065;0
1985-01-26 00:00:00;124.0;0;0.0539;0
1985-01-27 00:00:00;123.0;0;0.0446;0
1985-01-28 00:00:00;122.0;0;0.0358;0
1985-01-29 00:00:00;130.0;0;0.1119;0
1985-01-30 00:00:00;170.0;0;0.7125;0
1985-01-31 00:00:00;166.0;0;0.6262;0
1985-02-01 00:00:00;155.0;0;0.4276;0
1985-02-02 00:00:00;148.0;0;0.303;0
1985-02-03 00:00:00;143.0;0;0.2414;0
1985-02-04 00:00:00;140.0;0;0.1999;0
1985-02-05 00:00:00;136.0;0;0.1587;0
1985-02-06 00:00:00;134.0;0;0.1414;0
1985-02-07 00:00:00;133.0;0;0.1276;0
1985-02-08 00:00:00;130.0;0;0.1093;0
1985-02-09 00:00:00;128.0;0;0.091;0
1985-02-10 00:00:00;126.0;0;0.0719;0
1985-02-11 00:00:00;126.0;0;0.0712;0
1985-02-12 00:00:00;124.0;0;0.0522;0
1985-02-13 00:00:00;122.0;0;0.0412;0
1985-02-14 00:00:00;121.0;0;0.0336;0
1985-02-15 00:00:00;122.0;0;0.0391;0
1985-02-16 00:00:00;119.0;0;0.0236;0
1985-02-17 00:00:00;119.0;0;0.0216;0
1985-02-18 00:00:00;118.0;0;0.0188;0
1985-02-19 00:00:00;119.0;0;0.0214;0
1985-02-20 00:00:00;119.0;0;0.0201;0
1985-02-21 00:00:00;118.0;0;0.0171;0
1985-02-22 00:00:00;118.0;0;0.017;0
1985-02-23 00:00:00;118.0;0;0.0169;0
1985-02-24 00:00:00;119.0;0;0.0218;0
1985-02-25 00:00:00;119.0;0;0.0207;0
1985-02-26 00:00:00;119.0;0;0.0207;0
1985-02-27 00:00:00;119.0;0;0.0206;0
1985-02-28 00:00:00;119.0;0;0.0204;0
1985-03-01 00:00:00;117.0;0;0.0132;0
1985-03-02 00:00:00;119.0;0;0.0211;0
1985-03-03 00:00:00;121.0;0;0.0283;0
1985-03-04 00:00:00;121.0;0;0.0297;0
1985-03-05 00:00:00;123.0;0;0.0441;0
1985-03-06 00:00:00;122.0;0;0.036;0
1985-03-07 00:00:00;135.0;0;0.1355;0
1985-03-08 00:00:00;134.0;0;0.1248;0
1985-03-09 00:00:00;129.0;0;0.0909;0
1985-03-10 00:00:00;127.0;0;0.0712;0
1985-03-11 00:00:00;127.0;0;0.0743;0
1985-03-12 00:00:00;127.0;0;0.0705;0
1985-03-13 00:00:00;127.0;0;0.072;0
1985-03-14 00:00:00;127.0;0;0.0748;0
1985-03-15 00:00:00;128.0;0;0.0825;0
1985-03-16 00:00:00;128.0;0;0.0839;0
1985-03-17 00:00:00;128.0;0;0.0781;0
1985-03-18 00:00:00;127.0;0;0.0748;0
1985-03-19 00:00:00;126.0;0;0.0688;0
1985-03-20 00:00:00;126.0;0;0.0699;0
1985-03-21 00:00:00;130.0;0;0.0998;0
1985-03-22 00:00:00;133.0;0;0.125;0
1985-03-23 00:00:00;131.0;0;0.1079;0
1985-03-24 00:00:00;129.0;0;0.0967;0
1985-03-25 00:00:00;128.0;0;0.0907;0
1985-03-26 00:00:00;128.0;0;0.093;0
1985-03-27 00:00:00;141.0;0;0.2335;0
1985-03-28 00:00:00;135.0;0;0.1678;0
1985-03-29 00:00:00;133.0;0;0.1436;0
1985-03-30 00:00:00;160.0;0;0.583;0
1985-03-31 00:00:00;156.0;0;0.5133;0
1985-04-01 00:00:00;148.0;0;0.3572;0
1985-04-02 00:00:00;149.0;0;0.3744;0
1985-04-03 00:00:00;144.0;0;0.2888;0
1985-04-04 00:00:00;139.0;0;0.225;0
1985-04-05 00:00:00;135.0;0;0.1703;0
1985-04-06 00:00:00;132.0;0;0.1417;0
1985-04-07 00:00:00;133.0;0;0.1504;0
1985-04-08 00:00:00;133.0;0;0.1519;0
1985-04-09 00:00:00;137.0;0;0.1943;0
1985-04-10 00:00:00;135.0;0;0.1662;0
1985-04-11 00:00:00;133.0;0;0.1483;0
1985-04-12 00:00:00;132.0;0;0.1376;0
1985-04-13 00:00:00;131.0;0;0.1318;0
1985-04-14 00:00:00;132.0;0;0.1356;0
1985-04-15 00:00:00;132.0;0;0.1394;0
1985-04-16 00:00:00;134.0;0;0.155;0
1985-04-17 00:00:00;131.0;0;0.1239;0
1985-04-18 00:00:00;128.0;0;0.0978;0
1985-04-19 00:00:00;127.0;0;0.0885;0
1985-04-20 00:00:00;126.0;0;0.0758;0
1985-04-21 00:00:00;124.0;0;0.059;0
1985-04-22 00:00:00;123.0;0;0.0486;0
1985-04-23 00:00:00;122.0;0;0.0432;0
1985-04-24 00:00:00;122.0;0;0.0402;0
1985-04-25 00:00:00;122.0;0;0.0392;0
1985-04-26 00:00:00;121.0;0;0.0332;0
1985-04-27 00:00:00;123.0;0;0.0482;0
1985-04-28 00:00:00;124.0;0;0.0525;0
1985-04-29 00:00:00;124.0;0;0.0512;0
1985-04-30 00:00:00;123.0;0;0.0465;0
1985-05-01 00:00:00;123.0;0;0.0413;0
1985-05-02 00:00:00;122.0;0;0.0372;0
1985-05-03 00:00:00;121.0;0;0.0333;0
1985-05-04 00:00:00;120.0;0;0.0255;0
1985-05-05 00:00:00;120.0;0;0.025;0
1985-05-06 00:00:00;120.0;0;0.0242;0
1985-05-07 00:00:00;119.0;0;0.0203;0
1985-05-08 00:00:00;119.0;0;0.0201;0
1985-05-09 00:00:00;119.0;0;0.0199;0
1985-05-10 00:00:00;119.0;0;0.0196;0
1985-05-11 00:00:00;119.0;0;0.0182;0
1985-05-12 00:00:00;118.0;0;0.0156;0
1985-05-13 00:00:00;118.0;0;0.0155;0
1985-05-14 00:00:00;118.0;0;0.0154;0
1985-05-15 00:00:00;118.0;0;0.0166;0
1985-05-16 00:00:00;121.0;0;0.0322;0
1985-05-17 00:00:00;126.0;0;0.0579;0
1985-05-18 00:00:00;122.0;0;0.0297;0
1985-05-19 00:00:00;120.0;0;0.022;0
1985-05-20 00:00:00;120.0;0;0.0216;0
1985-05-21 00:00:00;118.0;0;0.0152;0
1985-05-22 00:00:00;118.0;0;0.0141;0
1985-05-23 00:00:00;118.0;0;0.0135;0
1985-05-24 00:00:00;118.0;0;0.015;0
1985-05-25 00:00:00;116.0;0;0.0086;0
1985-05-26 00:00:00;115.0;0;0.0074;0
1985-05-27 00:00:00;115.0;0;0.0061;0
1985-05-28 00:00:00;115.0;0;0.0057;0
1985-05-29 00:00:00;116.0;0;0.0084;0
1985-05-30 00:00:00;115.0;0;0.0063;0
1985-05-31 00:00:00;115.0;0;0.007;0
1985-06-01 00:00:00;115.0;0;0.0057;0
1985-06-02 00:00:00;114.0;0;0.0044;0
1985-06-03 00:00:00;115.0;0;0.0055;0
1985-06-04 00:00:00;115.0;0;0.0051;0
1985-06-05 00:00:00;114.0;0;0.0041;0
1985-06-06 00:00:00;114.0;0;0.004;0
1985-06-07 00:00:00;115.0;0;0.0058;0
1985-06-08 00:00:00;115.0;0;0.0046;0
1985-06-09 00:00:00;114.0;0;0.0038;0
1985-06-10 00:00:00;115.0;0;0.0048;0
1985-06-11 00:00:00;114.0;0;0.0037;0
1985-06-12 00:00:00;118.0;0;0.0113;0
1985-06-13 00:00:00;119.0;0;0.0124;0
1985-06-14 00:00:00;117.0;0;0.0079;0
1985-06-15 00:00:00;117.0;0;0.0076;0
1985-06-16 00:00:00;116.0;0;0.0056;0
1985-06-17 00:00:00;116.0;0;0.0049;0
1985-06-18 00:00:00;115.0;0;0.004;0
1985-06-19 00:00:00;115.0;0;0.0039;0
1985-06-20 00:00:00;115.0;0;0.0038;0
1985-06-21 00:00:00;115.0;0;0.0036;0
1985-06-22 00:00:00;115.0;0;0.0039;0
1985-06-23 00:00:00;116.0;0;0.0047;0
1985-06-24 00:00:00;116.0;0;0.0045;0
1985-06-25 00:00:00;116.0;0;0.0037;0
1985-06-26 00:00:00;116.0;0;0.004;0
1985-06-27 00:00:00;117.0;0;0.0047;0
1985-06-28 00:00:00;117.0;0;0.0044;0
1985-06-29 00:00:00;116.0;0;0.0036;0
1985-06-30 00:00:00;116.0;0;0.0034;0
1985-07-01 00:00:00;116.0;0;0.0034;0
1985-07-02 00:00:00;116.0;0;0.0033;0
1985-07-03 00:00:00;115.0;0;0.0026;0
1985-07-04 00:00:00;116.0;0;0.003;0
1985-07-05 00:00:00;116.0;0;0.003;0
1985-07-06 00:00:00;116.0;0;0.0029;0
1985-07-07 00:00:00;116.0;0;0.0027;0
1985-07-08 00:00:00;116.0;0;0.0029;0
1985-07-09 00:00:00;117.0;0;0.0033;0
1985-07-10 00:00:00;117.0;0;0.0029;0
1985-07-11 00:00:00;116.0;0;0.0024;0
1985-07-12 00:00:00;116.0;0;0.0023;0
1985-07-13 00:00:00;116.0;0;0.0023;0
1985-07-14 00:00:00;118.0;0;0.0041;0
1985-07-15 00:00:00;126.0;0;0.0132;0
1985-07-16 00:00:00;118.0;0;0.0035;0
1985-07-17 00:00:00;116.0;0;0.002;0
1985-07-18 00:00:00;116.0;0;0.002;0
1985-07-19 00:00:00;116.0;0;0.0019;0
1985-07-20 00:00:00;116.0;0;0.0021;0
1985-07-21 00:00:00;120.0;0;0.0043;0
1985-07-22 00:00:00;129.0;0;0.0152;0
1985-07-23 00:00:00;122.0;0;0.0066;0
1985-07-24 00:00:00;120.0;0;0.0038;0
1985-07-25 00:00:00;119.0;0;0.0033;0
1985-07-26 00:00:00;118.0;0;0.0026;0
1985-07-27 00:00:00;120.0;0;0.0046;0
1985-07-28 00:00:00;121.0;0;0.0048;0
1985-07-29 00:00:00;120.0;0;0.0045;0
1985-07-30 00:00:00;121.0;0;0.0049;0
1985-07-31 00:00:00;125.0;0;0.0091;0
1985-08-01 00:00:00;125.0;0;0.01;0
1985-08-02 00:00:00;121.0;0;0.0051;0
1985-08-03 00:00:00;120.0;0;0.0041;0
1985-08-04 00:00:00;123.0;0;0.0071;0
1985-08-05 00:00:00;134.0;0;0.0233;0
1985-08-06 00:00:00;135.0;0;0.0232;0
1985-08-07 00:00:00;126.0;0;0.0113;0
1985-08-08 00:00:00;123.0;0;0.0073;0
1985-08-09 00:00:00;122.0;0;0.0056;0
1985-08-10 00:00:00;122.0;0;0.0067;0
1985-08-11 00:00:00;124.0;0;0.0088;0
1985-08-12 00:00:00;122.0;0;0.0061;0
1985-08-13 00:00:00;120.0;0;0.0045;0
1985-08-14 00:00:00;121.0;0;0.0057;0
1985-08-15 00:00:00;133.0;0;0.0228;0
1985-08-16 00:00:00;125.0;0;0.0112;0
1985-08-17 00:00:00;128.0;0;0.0157;0
1985-08-18 00:00:00;124.0;0;0.0102;0
1985-08-19 00:00:00;123.0;0;0.0079;0
1985-08-20 00:00:00;124.0;0;0.0096;0
1985-08-21 00:00:00;124.0;0;0.0097;0
1985-08-22 00:00:00;122.0;0;0.0078;0
1985-08-23 00:00:00;121.0;0;0.0056;0
1985-08-24 00:00:00;120.0;0;0.0051;0
1985-08-25 00:00:00;119.0;0;0.0042;0
1985-08-26 00:00:00;118.0;0;0.0037;0
1985-08-27 00:00:00;117.0;0;0.0031;0
1985-08-28 00:00:00;117.0;0;0.0025;0
1985-08-29 00:00:00;118.0;0;0.0034;0
1985-08-30 00:00:00;118.0;0;0.0033;0
1985-08-31 00:00:00;117.0;0;0.0027;0
1985-09-01 00:00:00;117.0;0;0.0031;0
1985-09-02 00:00:00;120.0;0;0.0062;0
1985-09-03 00:00:00;119.0;0;0.0047;0
1985-09-04 00:00:00;122.0;0;0.0084;0
1985-09-05 00:00:00;121.0;0;0.0065;0
1985-09-06 00:00:00;124.0;0;0.0115;0
1985-09-07 00:00:00;125.0;0;0.0121;0
1985-09-08 00:00:00;123.0;0;0.0094;0
1985-09-09 00:00:00;122.0;0;0.0076;0
1985-09-10 00:00:00;120.0;0;0.0056;0
1985-09-11 00:00:00;120.0;0;0.0056;0
1985-09-12 00:00:00;119.0;0;0.0047;0
1985-09-13 00:00:00;119.0;0;0.0046;0
1985-09-14 00:00:00;119.0;0;0.0046;0
1985-09-15 00:00:00;122.0;0;0.0085;0
1985-09-16 00:00:00;127.0;0;0.016;0
1985-09-17 00:00:00;152.0;0;0.0793;0
1985-09-18 00:00:00;147.0;0;0.0592;0
1985-09-19 00:00:00;138.0;0;0.0361;0
1985-09-20 00:00:00;134.0;0;0.0274;0
1985-09-21 00:00:00;131.0;0;0.0221;0
1985-09-22 00:00:00;132.0;0;0.024;0
1985-09-23 00:00:00;132.0;0;0.0221;0
1985-09-24 00:00:00;131.0;0;0.021;0
1985-09-25 00:00:00;130.0;0;0.0191;0
1985-09-26 00:00:00;128.0;0;0.017;0
1985-09-27 00:00:00;127.0;0;0.0155;0
1985-09-28 00:00:00;127.0;0;0.0149;0
1985-09-29 00:00:00;126.0;0;0.0135;0
1985-09-30 00:00:00;126.0;0;0.013;0
1985-10-01 00:00:00;125.0;0;0.0117;0
1985-10-02 00:00:00;125.0;0;0.0117;0
1985-10-03 00:00:00;124.0;0;0.01;0
1985-10-04 00:00:00;124.0;0;0.0097;0
1985-10-05 00:00:00;123.0;0;0.0084;0
1985-10-06 00:00:00;122.0;0;0.0072;0
1985-10-07 00:00:00;123.0;0;0.0081;0
1985-10-08 00:00:00;132.0;0;0.0245;0
1985-10-09 00:00:00;137.0;0;0.0321;0
1985-10-10 00:00:00;133.0;0;0.0244;0
1985-10-11 00:00:00;131.0;0;0.0216;0
1985-10-12 00:00:00;129.0;0;0.0193;0
1985-10-13 00:00:00;127.0;0;0.0168;0
1985-10-14 00:00:00;127.0;0;0.0163;0
1985-10-15 00:00:00;127.0;0;0.0159;0
1985-10-16 00:00:00;126.0;0;0.015;0
1985-10-17 00:00:00;126.0;0;0.015;0
1985-10-18 00:00:00;126.0;0;0.0153;0
1985-10-19 00:00:00;126.0;0;0.0148;0
1985-10-20 00:00:00;125.0;0;0.0133;0
1985-10-21 00:00:00;124.0;0;0.0125;0
1985-10-22 00:00:00;124.0;0;0.0127;0
1985-10-23 00:00:00;123.0;0;0.012;0
1985-10-24 00:00:00;124.0;0;0.0126;0
1985-10-25 00:00:00;123.0;0;0.0121;0
1985-10-26 00:00:00;123.0;0;0.0123;0
1985-10-27 00:00:00;123.0;0;0.0126;0
1985-10-28 00:00:00;123.0;0;0.0131;0
1985-10-29 00:00:00;123.0;0;0.0135;0
1985-10-30 00:00:00;123.0;0;0.014;0
1985-10-31 00:00:00;123.0;0;0.0142;0
1985-11-01 00:00:00;124.0;0;0.0164;0
1985-11-02 00:00:00;129.0;0;0.0308;0
1985-11-03 00:00:00;129.0;0;0.0312;0
1985-11-04 00:00:00;130.0;0;0.0368;0
1985-11-05 00:00:00;137.0;0;0.0627;0
1985-11-06 00:00:00;152.0;0;0.131;0
1985-11-07 00:00:00;168.0;0;0.2433;0
1985-11-08 00:00:00;164.0;0;0.2222;0
1985-11-09 00:00:00;161.0;0;0.2039;0
1985-11-10 00:00:00;180.0;0;0.3881;0
1985-11-11 00:00:00;171.0;0;0.2984;0
1985-11-12 00:00:00;162.0;0;0.2237;0
1985-11-13 00:00:00;155.0;0;0.1772;0
1985-11-14 00:00:00;148.0;0;0.1331;0
1985-11-15 00:00:00;144.0;0;0.1134;0
1985-11-16 00:00:00;142.0;0;0.1051;0
1985-11-17 00:00:00;140.0;0;0.0988;0
1985-11-18 00:00:00;135.0;0;0.0799;0
1985-11-19 00:00:00;129.0;0;0.0498;0
1985-11-20 00:00:00;128.0;0;0.0473;0
1985-11-21 00:00:00;127.0;0;0.0469;0
1985-11-22 00:00:00;127.0;0;0.049;0
1985-11-23 00:00:00;129.0;0;0.0575;0
1985-11-24 00:00:00;129.0;0;0.0618;0
1985-11-25 00:00:00;129.0;0;0.0638;0
1985-11-26 00:00:00;128.0;0;0.0612;0
1985-11-27 00:00:00;127.0;0;0.0582;0
1985-11-28 00:00:00;127.0;0;0.0598;0
1985-11-29 00:00:00;125.0;0;0.0468;0
1985-11-30 00:00:00;124.0;0;0.0393;0
1985-12-01 00:00:00;125.0;0;0.0442;0
1985-12-02 00:00:00;149.0;0;0.2634;0
1985-12-03 00:00:00;155.0;0;0.3258;0
1985-12-04 00:00:00;146.0;0;0.22;0
1985-12-05 00:00:00;150.0;0;0.2783;0
1985-12-06 00:00:00;157.0;0;0.3811;0
1985-12-07 00:00:00;163.0;0;0.4919;0
1985-12-08 00:00:00;157.0;0;0.3897;0
1985-12-09 00:00:00;151.0;0;0.3081;0
1985-12-10 00:00:00;158.0;0;0.4194;0
1985-12-11 00:00:00;148.0;0;0.274;0
1985-12-12 00:00:00;142.0;0;0.1972;0
1985-12-13 00:00:00;142.0;0;0.2006;0
1985-12-14 00:00:00;144.0;0;0.2216;0
1985-12-15 00:00:00;142.0;0;0.1961;0
1985-12-16 00:00:00;142.0;0;0.1988;0
1985-12-17 00:00:00;139.0;0;0.1625;0
1985-12-18 00:00:00;143.0;0;0.2109;0
1985-12-19 00:00:00;148.0;0;0.2566;0
1985-12-20 00:00:00;154.0;0;0.3526;0
1985-12-21 00:00:00;161.0;0;0.4424;0
1985-12-22 00:00:00;149.0;0;0.2704;0
1985-12-23 00:00:00;142.0;0;0.1872;0
1985-12-24 00:00:00;138.0;0;0.1495;0
1985-12-25 00:00:00;136.0;0;0.1278;0
1985-12-26 00:00:00;134.0;0;0.1123;0
1985-12-27 00:00:00;132.0;0;0.0955;0
1985-12-28 00:00:00;131.0;0;0.0852;0
1985-12-29 00:00:00;129.0;0;0.0735;0
1985-12-30 00:00:00;127.0;0;0.0644;0
1985-12-31 00:00:00;127.0;0;0.0615;0
1986-01-01 00:00:00;126.0;0;0.0532;0
1986-01-02 00:00:00;126.0;0;0.0501;0
1986-01-03 00:00:00;125.0;0;0.043;0
1986-01-04 00:00:00;123.0;0;0.034;0
1986-01-05 00:00:00;123.0;0;0.0328;0
1986-01-06 00:00:00;123.0;0;0.0301;0
1986-01-07 00:00:00;122.0;0;0.0291;0
1986-01-08 00:00:00;122.0;0;0.0291;0
1986-01-09 00:00:00;122.0;0;0.0275;0
1986-01-10 00:00:00;121.0;0;0.0242;0
1986-01-11 00:00:00;124.0;0;0.036;0
1986-01-12 00:00:00;136.0;0;0.1363;0
1986-01-13 00:00:00;159.0;0;0.3717;0
1986-01-14 00:00:00;165.0;0;0.4707;0
1986-01-15 00:00:00;162.0;0;0.4421;0
1986-01-16 00:00:00;149.0;0;0.2663;0
1986-01-17 00:00:00;140.0;0;0.1756;0
1986-01-18 00:00:00;138.0;0;0.1596;0
1986-01-19 00:00:00;161.0;0;0.5886;0
1986-01-20 00:00:00;173.0;0;0.7402;0
1986-01-21 00:00:00;167.0;0;0.6199;0
1986-01-22 00:00:00;160.0;0;0.4969;0
1986-01-23 00:00:00;158.0;0;0.4539;0
1986-01-24 00:00:00;155.0;0;0.3959;0
1986-01-25 00:00:00;148.0;0;0.2833;0
1986-01-26 00:00:00;142.0;0;0.2019;0
1986-01-27 00:00:00;138.0;0;0.1579;0
1986-01-28 00:00:00;136.0;0;0.135;0
1986-01-29 00:00:00;132.0;0;0.1045;0
1986-01-30 00:00:00;130.0;0;0.0828;0
1986-01-31 00:00:00;128.0;0;0.0718;0
1986-02-01 00:00:00;129.0;0;0.0749;0
1986-02-02 00:00:00;128.0;0;0.0675;0
1986-02-03 00:00:00;126.0;0;0.0565;0
1986-02-04 00:00:00;126.0;0;0.052;0
1986-02-05 00:00:00;125.0;0;0.0455;0
1986-02-06 00:00:00;125.0;0;0.0422;0
1986-02-07 00:00:00;123.0;0;0.0348;0
1986-02-08 00:00:00;123.0;0;0.032;0
1986-02-09 00:00:00;122.0;0;0.0273;0
1986-02-10 00:00:00;122.0;0;0.0268;0
1986-02-11 00:00:00;121.0;0;0.0229;0
1986-02-12 00:00:00;121.0;0;0.0229;0
1986-02-13 00:00:00;121.0;0;0.0231;0
1986-02-14 00:00:00;121.0;0;0.0215;0
1986-02-15 00:00:00;121.0;0;0.0218;0
1986-02-16 00:00:00;120.0;0;0.0193;0
1986-02-17 00:00:00;120.0;0;0.0193;0
1986-02-18 00:00:00;120.0;0;0.0189;0
1986-02-19 00:00:00;119.0;0;0.0171;0
1986-02-20 00:00:00;119.0;0;0.0161;0
1986-02-21 00:00:00;120.0;0;0.0178;0
1986-02-22 00:00:00;119.0;0;0.0161;0
1986-02-23 00:00:00;119.0;0;0.0162;0
1986-02-24 00:00:00;119.0;0;0.016;0
1986-02-25 00:00:00;118.0;0;0.014;0
1986-02-26 00:00:00;119.0;0;0.016;0
1986-02-27 00:00:00;119.0;0;0.0152;0
1986-02-28 00:00:00;118.0;0;0.0134;0
1986-03-01 00:00:00;117.0;0;0.0111;0
1986-03-02 00:00:00;118.0;0;0.0136;0
1986-03-03 00:00:00;118.0;0;0.0145;0
1986-03-04 00:00:00;119.0;0;0.0171;0
1986-03-05 00:00:00;125.0;0;0.0501;0
1986-03-06 00:00:00;125.0;0;0.0475;0
1986-03-07 00:00:00;121.0;0;0.0252;0
1986-03-08 00:00:00;121.0;0;0.0233;0
1986-03-09 00:00:00;121.0;0;0.0234;0
1986-03-10 00:00:00;122.0;0;0.0362;0
1986-03-11 00:00:00;123.0;0;0.0371;0
1986-03-12 00:00:00;121.0;0;0.0281;0
1986-03-13 00:00:00;121.0;0;0.027;0
1986-03-14 00:00:00;120.0;0;0.0247;0
1986-03-15 00:00:00;120.0;0;0.024;0
1986-03-16 00:00:00;121.0;0;0.0285;0
1986-03-17 00:00:00;121.0;0;0.0302;0
1986-03-18 00:00:00;123.0;0;0.0422;0
1986-03-19 00:00:00;123.0;0;0.0426;0
1986-03-20 00:00:00;123.0;0;0.0446;0
1986-03-21 00:00:00;126.0;0;0.0681;0
1986-03-22 00:00:00;126.0;0;0.0709;0
1986-03-23 00:00:00;136.0;0;0.1663;0
1986-03-24 00:00:00;137.0;0;0.1718;0
1986-03-25 00:00:00;148.0;0;0.3125;0
1986-03-26 00:00:00;149.0;0;0.3213;0
1986-03-27 00:00:00;141.0;0;0.2256;0
1986-03-28 00:00:00;144.0;0;0.2629;0
1986-03-29 00:00:00;149.0;0;0.3334;0
1986-03-30 00:00:00;148.0;0;0.3168;0
1986-03-31 00:00:00;145.0;0;0.278;0
1986-04-01 00:00:00;139.0;0;0.2031;0
1986-04-02 00:00:00;138.0;0;0.1874;0
1986-04-03 00:00:00;136.0;0;0.1642;0
1986-04-04 00:00:00;133.0;0;0.1397;0
1986-04-05 00:00:00;131.0;0;0.1173;0
1986-04-06 00:00:00;128.0;0;0.098;0
1986-04-07 00:00:00;128.0;0;0.0938;0
1986-04-08 00:00:00;127.0;0;0.0827;0
1986-04-09 00:00:00;126.0;0;0.0712;0
1986-04-10 00:00:00;124.0;0;0.0514;0
1986-04-11 00:00:00;122.0;0;0.0399;0
1986-04-12 00:00:00;122.0;0;0.039;0
1986-04-13 00:00:00;122.0;0;0.0386;0
1986-04-14 00:00:00;122.0;0;0.0382;0
1986-04-15 00:00:00;122.0;0;0.0376;0
1986-04-16 00:00:00;122.0;0;0.0372;0
1986-04-17 00:00:00;122.0;0;0.0368;0
1986-04-18 00:00:00;122.0;0;0.0362;0
1986-04-19 00:00:00;122.0;0;0.0356;0
1986-04-20 00:00:00;122.0;0;0.035;0
1986-04-21 00:00:00;122.0;0;0.0344;0
1986-04-22 00:00:00;122.0;0;0.0337;0
1986-04-23 00:00:00;121.0;0;0.0277;0
1986-04-24 00:00:00;120.0;0;0.0229;0
1986-04-25 00:00:00;120.0;0;0.0225;0
1986-04-26 00:00:00;120.0;0;0.0222;0
1986-04-27 00:00:00;120.0;0;0.0218;0
1986-04-28 00:00:00;120.0;0;0.0214;0
1986-04-29 00:00:00;119.0;0;0.0173;0
1986-04-30 00:00:00;119.0;0;0.017;0
1986-05-01 00:00:00;119.0;0;0.0165;0
1986-05-02 00:00:00;119.0;0;0.0162;0
1986-05-03 00:00:00;119.0;0;0.016;0
1986-05-04 00:00:00;119.0;0;0.0145;0
1986-05-05 00:00:00;118.0;0;0.0125;0
1986-05-06 00:00:00;118.0;0;0.0122;0
1986-05-07 00:00:00;118.0;0;0.0124;0
1986-05-08 00:00:00;119.0;0;0.0136;0
1986-05-09 00:00:00;118.0;0;0.0114;0
1986-05-10 00:00:00;118.0;0;0.0115;0
1986-05-11 00:00:00;118.0;0;0.0118;0
1986-05-12 00:00:00;118.0;0;0.0106;0
1986-05-13 00:00:00;118.0;0;0.0103;0
1986-05-14 00:00:00;118.0;0;0.0101;0
1986-05-15 00:00:00;119.0;0;0.0121;0
1986-05-16 00:00:00;119.0;0;0.0125;0
1986-05-17 00:00:00;118.0;0;0.0095;0
1986-05-18 00:00:00;118.0;0;0.0103;0
1986-05-19 00:00:00;118.0;0;0.009;0
1986-05-20 00:00:00;117.0;0;0.0076;0
1986-05-21 00:00:00;117.0;0;0.0069;0
1986-05-22 00:00:00;117.0;0;0.0068;0
1986-05-23 00:00:00;117.0;0;0.0066;0
1986-05-24 00:00:00;117.0;0;0.0058;0
1986-05-25 00:00:00;116.0;0;0.0044;0
1986-05-26 00:00:00;116.0;0;0.0049;0
1986-05-27 00:00:00;116.0;0;0.0048;0
1986-05-28 00:00:00;116.0;0;0.0048;0
1986-05-29 00:00:00;116.0;0;0.0044;0
1986-05-30 00:00:00;115.0;0;0.0036;0
1986-05-31 00:00:00;115.0;0;0.0036;0
1986-06-01 00:00:00;115.0;0;0.0035;0
1986-06-02 00:00:00;115.0;0;0.0035;0
1986-06-03 00:00:00;115.0;0;0.0036;0
1986-06-04 00:00:00;116.0;0;0.0051;0
1986-06-05 00:00:00;115.0;0;0.0035;0
1986-06-06 00:00:00;118.0;0;0.0079;0
1986-06-07 00:00:00;117.0;0;0.0054;0
1986-06-08 00:00:00;116.0;0;0.0041;0
1986-06-09 00:00:00;115.0;0;0.0033;0
1986-06-10 00:00:00;114.0;0;0.0026;0
1986-06-11 00:00:00;114.0;0;0.0026;0
1986-06-12 00:00:00;114.0;0;0.0026;0
1986-06-13 00:00:00;114.0;0;0.0026;0
1986-06-14 00:00:00;114.0;0;0.0026;0
1986-06-15 00:00:00;114.0;0;0.0026;0
1986-06-16 00:00:00;114.0;0;0.0026;0
1986-06-17 00:00:00;114.0;0;0.0026;0
1986-06-18 00:00:00;114.0;0;0.0024;0
1986-06-19 00:00:00;114.0;0;0.0023;0
1986-06-20 00:00:00;113.0;0;0.0017;0
1986-06-21 00:00:00;112.0;0;0.0013;0
1986-06-22 00:00:00;112.0;0;0.0013;0
1986-06-23 00:00:00;112.0;0;0.0013;0
1986-06-24 00:00:00;112.0;0;0.0013;0
1986-06-25 00:00:00;112.0;0;0.0013;0
1986-06-26 00:00:00;112.0;0;0.0013;0
1986-06-27 00:00:00;112.0;0;0.0013;0
1986-06-28 00:00:00;112.0;0;0.0013;0
1986-06-29 00:00:00;112.0;0;0.0013;0
1986-06-30 00:00:00;112.0;0;0.0013;0
1986-07-01 00:00:00;112.0;0;0.0013;0
1986-07-02 00:00:00;112.0;0;0.0013;0
1986-07-03 00:00:00;112.0;0;0.0012;0
1986-07-04 00:00:00;112.0;0;0.0012;0
1986-07-05 00:00:00;115.0;0;0.0041;0
1986-07-06 00:00:00;115.0;0;0.0031;0
1986-07-07 00:00:00;114.0;0;0.0022;0
1986-07-08 00:00:00;114.0;0;0.0022;0
1986-07-09 00:00:00;114.0;0;0.0022;0
1986-07-10 00:00:00;114.0;0;0.0022;0
1986-07-11 00:00:00;114.0;0;0.0021;0
1986-07-12 00:00:00;114.0;0;0.0021;0
1986-07-13 00:00:00;114.0;0;0.002;0
1986-07-14 00:00:00;114.0;0;0.002;0
1986-07-15 00:00:00;114.0;0;0.0019;0
1986-07-16 00:00:00;114.0;0;0.0019;0
1986-07-17 00:00:00;114.0;0;0.0018;0
1986-07-18 00:00:00;114.0;0;0.0018;0
1986-07-19 00:00:00;114.0;0;0.0017;0
1986-07-20 00:00:00;114.0;0;0.0017;0
1986-07-21 00:00:00;114.0;0;0.0016;0
1986-07-22 00:00:00;114.0;0;0.0015;0
1986-07-23 00:00:00;114.0;0;0.0015;0
1986-07-24 00:00:00;115.0;0;0.0023;0